Hourly Data Report for November 23, 2003

TORONTO CITY
ONTARIO

43°40'00.000" N
79°24'00.000" W
112.50 m
6158355
71508
XTO

Download Data

Hourly Data (November 2003)
Hourly Data Report for November 23, 2003
TIME
LST
Temp Definition
°C
Dew Point Definition
°C
Rel Hum Definition
%
Precip. Amount Definition
mm

Wind Dir Definition
10's deg

Wind Spd Definition
km/h
Visibility Definition
km
Stn Press Definition
kPa
Hmdx Definition


Wind Chill Definition


Weather Definition


00:00 6.2 1.9 74   LegendMM LegendMM LegendMM 100.54     LegendNANA
01:00 6.1 2.0 75   LegendMM LegendMM LegendMM 100.55     LegendNANA
02:00 6.2 2.5 77   LegendMM LegendMM LegendMM 100.54     LegendNANA
03:00 6.4 3.0 79   LegendMM LegendMM LegendMM 100.54     LegendNANA
04:00 6.1 2.7 79   LegendMM LegendMM LegendMM 100.47     LegendNANA
05:00 6.1 3.1 81   LegendMM LegendMM LegendMM 100.42     LegendNANA
06:00 6.0 3.3 83   LegendMM LegendMM LegendMM 100.37     LegendNANA
07:00 6.1 3.8 85   LegendMM LegendMM LegendMM 100.38     LegendNANA
08:00 6.3 4.3 87   LegendMM LegendMM LegendMM 100.38     LegendNANA
09:00 7.1 5.1 87   LegendMM LegendMM LegendMM 100.35     LegendNANA
10:00 8.4 5.9 84   LegendMM LegendMM LegendMM 100.32     LegendNANA
11:00 9.0 6.5 84   LegendMM LegendMM LegendMM 100.25     LegendNANA
12:00 10.5 7.0 79   LegendMM LegendMM LegendMM 100.13     LegendNANA
13:00 11.4 7.3 76   LegendMM LegendMM LegendMM 100.03     LegendNANA
14:00 11.4 7.5 77   LegendMM LegendMM LegendMM 99.98     LegendNANA
15:00 12.1 7.8 75   LegendMM LegendMM LegendMM 99.90     LegendNANA
16:00 12.3 7.8 74   LegendMM LegendMM LegendMM 99.88     LegendNANA
17:00 11.7 7.8 77   LegendMM LegendMM LegendMM 99.83     LegendNANA
18:00 11.4 7.9 79   LegendMM LegendMM LegendMM 99.80     LegendNANA
19:00 11.5 8.0 79   LegendMM LegendMM LegendMM 99.75     LegendNANA
20:00 11.5 7.8 78   LegendMM LegendMM LegendMM 99.65     LegendNANA
21:00 12.6 7.1 69   LegendMM LegendMM LegendMM 99.57     LegendNANA
22:00 12.2 6.9 70   LegendMM LegendMM LegendMM 99.53     LegendNANA
23:00 11.8 6.9 72   LegendMM LegendMM LegendMM 99.51     LegendNANA

Notes on Data Quality.

Legend

  • E = Estimated
  • M = Missing
  • NA = Not Available*
  • [empty] = Indicates an unobserved value
Date modified: